Cold Bay, AK

10:29 PM AKDT on March 28, 2017 (GMT -0800)
Cold Bay

Weather History for PACD - April, 2013

Change the Weather History Date:

Thursday, April 18, 2013

  Actual Average Record
Temperature  
Mean Temperature 41 °F 34 °F  
Max Temperature 45 °F 39 °F 55 °F (1965)
Min Temperature 37 °F 30 °F 15 °F (1972)
Degree Days  
Heating Degree Days 24 31  
Month to date heating degree days 600 581  
Since 1 July heating degree days 8068 7884  
Cooling Degree Days 0    
Month to date cooling degree days 0  
Year to date cooling degree days 0  
Moisture  
Dew Point 34 °F    
Average Humidity 78    
Maximum Humidity 87    
Minimum Humidity 64    
Precipitation  
Precipitation 0.04 in 0.08 in 0.31 in (2010)
Month to date precipitation 1.92 1.47  
Year to date precipitation 11.54 10.31  
Snow  
Snow 0.00 in 0.20 in 3.10 in (2010)
Month to date snowfall 2.1 4.8  
Since 1 July snowfall 64.2 70.0  
Snow Depth 0.00 in    
Sea Level Pressure  
Sea Level Pressure 29.97 in    
Wind  
Wind Speed 18 mph (SSE)    
Max Wind Speed 25 mph    
Max Gust Speed 32 mph    
Visibility 10 miles    
Events Rain    
T = Trace of Precipitation, MM = Missing Value Source: NWS Daily Summary

Daily Weather History Graph

Daily Weather History Graph

Search for Another Location

Airport or City:

Trip Planner

Search our weather history database for the weather conditions in past years. The results will help you decide how hot, cold, wet, or windy it might be!

Date:

Astronomy

Apr. 18, 2013 Rise Set
Actual Time 7:38 AM AKDT 10:02 PM AKDT
Civil Twilight 6:58 AM AKDT 10:42 PM AKDT
Nautical Twilight 6:07 AM AKDT 11:34 PM AKDT
Astronomical Twilight 5:05 AM AKDT 12:38 AM AKDT
Moon 1:53 PM AKDT (4/18) 4:35 AM AKDT (4/18)
Length of Visible Light 15h 44m
Length of Day
14h 24m
First Quarter, 53% of the Moon is Illuminated
Apr 18
First Quarter
Apr 25
Full
May 2
Last Quarter
May 9
New
May 17
First Quarter

Hourly Weather History & Observations

Time (AKDT) Temp. Windchill Dew Point Humidity Pressure Visibility Wind Dir Wind Speed Gust Speed Precip Events Conditions
12:53 AM 37.9 °F 28.9 °F 32.0 °F 79% 29.85 in 10.0 mi ESE 16.1 mph 39.1 mph 0.00 in Rain Light Rain
1:31 AM 37.4 °F 29.3 °F 32.0 °F 81% 29.84 in 6.0 mi SE 12.7 mph - 0.02 in Rain Heavy Rain
1:53 AM 37.9 °F 32.1 °F 32.0 °F 79% 29.85 in 10.0 mi SE 8.1 mph 18.4 mph 0.03 in   Overcast
2:53 AM 39.0 °F 28.5 °F 32.0 °F 76% 29.84 in 10.0 mi SSE 23.0 mph 28.8 mph N/A   Overcast
3:53 AM 37.9 °F 27.3 °F 32.0 °F 79% 29.84 in 10.0 mi SSE 21.9 mph 26.5 mph 0.00 in   Overcast
4:53 AM 37.9 °F 27.1 °F 33.1 °F 83% 29.84 in 10.0 mi SE 23.0 mph 27.6 mph 0.01 in   Overcast
5:53 AM 39.0 °F 29.3 °F 33.1 °F 79% 29.85 in 10.0 mi SSE 19.6 mph - N/A   Overcast
6:53 AM 37.9 °F 27.9 °F 33.1 °F 83% 29.86 in 10.0 mi SSE 19.6 mph - 0.00 in   Overcast
7:53 AM 37.9 °F 27.3 °F 33.1 °F 83% 29.88 in 10.0 mi SSE 21.9 mph 27.6 mph 0.00 in   Overcast
8:53 AM 37.9 °F 27.9 °F 33.1 °F 83% 29.89 in 10.0 mi SSE 19.6 mph 26.5 mph N/A   Overcast
9:53 AM 39.0 °F 29.6 °F 34.0 °F 82% 29.91 in 10.0 mi SSE 18.4 mph 26.5 mph N/A   Mostly Cloudy
10:53 AM 42.1 °F 33.3 °F 35.1 °F 76% 29.94 in 10.0 mi SSE 19.6 mph 28.8 mph N/A   Mostly Cloudy
11:53 AM 43.0 °F 33.8 °F 35.1 °F 74% 29.95 in 10.0 mi SSE 23.0 mph 29.9 mph N/A   Overcast
12:53 PM 43.0 °F 33.3 °F 36.0 °F 76% 29.97 in 10.0 mi SSE 25.3 mph - N/A   Mostly Cloudy
1:53 PM 44.1 °F 35.4 °F 36.0 °F 73% 29.98 in 10.0 mi SSE 21.9 mph - N/A   Mostly Cloudy
2:53 PM 44.1 °F 35.7 °F 36.0 °F 73% 30.00 in 10.0 mi South 20.7 mph - N/A   Overcast
3:53 PM 44.1 °F 35.0 °F 36.0 °F 73% 30.01 in 10.0 mi South 24.2 mph - N/A   Mostly Cloudy
4:53 PM 45.0 °F 37.1 °F 37.0 °F 74% 30.02 in 10.0 mi SSE 19.6 mph - N/A   Mostly Cloudy
5:53 PM 44.1 °F 36.5 °F 36.0 °F 73% 30.03 in 10.0 mi South 17.3 mph - N/A   Overcast
6:53 PM 43.0 °F 35.1 °F 36.0 °F 76% 30.04 in 10.0 mi SSE 17.3 mph - N/A   Overcast
7:53 PM 41.0 °F 33.5 °F 35.1 °F 79% 30.06 in 10.0 mi SSE 13.8 mph - N/A   Overcast
8:53 PM 39.9 °F 32.1 °F 35.1 °F 83% 30.07 in 10.0 mi SSE 13.8 mph - N/A   Overcast
9:53 PM 39.0 °F 31.4 °F 34.0 °F 82% 30.09 in 10.0 mi SSE 12.7 mph - N/A   Overcast
10:53 PM 37.9 °F 30.0 °F 34.0 °F 86% 30.11 in 10.0 mi South 12.7 mph - 0.00 in   Overcast
11:26 PM 37.4 °F 29.8 °F 33.8 °F 87% 30.11 in 10.0 mi South 11.5 mph - N/A   Overcast
11:34 PM 37.4 °F 30.3 °F 33.8 °F 87% 30.12 in 10.0 mi South 10.4 mph - N/A   Overcast
11:53 PM 37.9 °F 30.5 °F 34.0 °F 86% 30.12 in 10.0 mi SSE 11.5 mph - N/A   Overcast